Header for Extended Forecast Station List Page

Search by: ID | Name | Date | Parm | Value | Avg | % Avg
Sort by: ID | Name | Date | Parm | Value | Avg | % Avg

Enter search or view all records.

Click on id for station plot
#IDNameDateParmValueAvg% Avg
0BULO3BULLY CREEK-BULLY CREEK DAM10-09-2018INFLOW (KAF)22128
1RIDI1WILLOW CREEK-RIRIE DAM10-09-2018INFLOW (KAF)88101
2BERO3MALHEUR-AGENCY VALLEY DAM10-09-2018INFLOW (KAF)101567
3TNAW1TEANAWAY-BELOW FORKS10-09-2018DISCHARGE (KAF)113533
4WRMO3MALHEUR-WARM SPRINGS DAM10-09-2018INFLOW (KAF)111862
5LWRI1LITTLE WOOD-LITTLE WOOD DAM10-09-2018INFLOW (KAF)131585
6MYKO3MCKAY CREEK-NEAR PILOT ROCK10-09-2018DISCHARGE (KAF)131492
7SATI1ST MARIES-NEAR SANTA10-09-2018DISCHARGE (KAF)152952
8VALO3MALHEUR-NEAR VALE10-09-2018DISCHARGE (KAF)162470
9HOTI1BRUNEAU-NEAR HOT SPRINGS10-09-2018DISCHARGE (KAF)172666
10DEDI1DEADWOOD-NEAR LOWMAN10-09-2018INFLOW (KAF)171989
11STRM8ST. REGIS-NEAR ST. REGIS10-09-2018DISCHARGE (KAF)183651
12ARDW1ENTIAT-NEAR ARDENVOIR10-09-2018DISCHARGE (KAF)192287
13BUDW1BUMPING-BUMPING LAKE DAM10-09-2018INFLOW (KAF)203459
14MAGI1BIG WOOD-MAGIC DAM10-09-2018INFLOW (KAF)222782
15HWRI1BIG LOST-AT HOWELL RANCH NEAR CHILLY10-09-2018DISCHARGE (KAF)2422112
16LUCI1BOISE-LUCKY PEAK DAM10-09-2018INFLOW (KAF)28MM
17GIBO3UMATILLA-NEAR GIBBON10-09-2018DISCHARGE (KAF)3329111
18KADW1KACHESS-KACHESS DAM10-09-2018INFLOW (KAF)344379
19KEDW1YAKIMA-KEECHELUS LAKE10-09-2018INFLOW (KAF)375074
20RILW1TIETON-RIMROCK LAKE NEAR RIMROCK10-09-2018INFLOW (KAF)376458
21HALI1BIG WOOD-AT HAILEY10-09-2018DISCHARGE (KAF)374192
22WSRI1WEISER-NEAR WEISER10-09-2018DISCHARGE (KAF)376656
23MACI1BIG LOST-MACKAY RESERVOIR NEAR MACKAY10-09-2018INFLOW (KAF)436677
24EASW1YAKIMA-AT EASTON10-09-2018DISCHARGE (KAF)456470
25BIGI1BOISE-AT GLENWOOD BRIDGE10-09-2018DISCHARGE (KAF)5137135
26PIHI1PORTNEUF-AT POCATELLO10-09-2018DISCHARGE (KAF)535989
27NACW1NACHES-NEAR NACHES10-09-2018DISCHARGE (KAF)547076
28MONO3NF JOHN DAY-AT MONUMENT10-09-2018DISCHARGE (KAF)548862
29CLUW1CLE ELUM-CLE ELUM LAKE10-09-2018INFLOW (KAF)5510055
30RCCM8ROCK CREEK-NEAR CLINTON10-09-2018DISCHARGE (KAF)6050121
31CLFW1NACHES-NEAR CLIFFDEL10-09-2018DISCHARGE (KAF)669867
32ARAI1SF BOISE-ANDERSON RANCH DAM10-09-2018INFLOW (KAF)687393
33DLGM8CLARK FORK-AT DEER LODGE10-09-2018DISCHARGE (KAF)6963109
34PDTO3UMATILLA-AT PENDLETON10-09-2018DISCHARGE (KAF)7366112
35OWYO3OWYHEE-OWYHEE DAM10-09-2018INFLOW (KAF)7874107
36CSDI1NF PAYETTE-CASCADE DAM10-09-2018INFLOW (KAF)829289
37IPDI1HENRYS FORK-ISLAND PARK DAM10-09-2018INFLOW (KAF)8411871
38TCHW1WALLA WALLA-NEAR TOUCHET10-09-2018DISCHARGE (KAF)869789
39LAUW1KETTLE-AT LAURIER10-09-2018DISCHARGE (KAF)9012771
40TEAI1TETON-NEAR ST. ANTHONY10-09-2018DISCHARGE (KAF)9910792
41PATW1METHOW-NEAR PATEROS10-09-2018DISCHARGE (KAF)101100102
42JLKW4SNAKE-JACKSON LAKE AT DAM10-09-2018INFLOW (KAF)10611295
43UMAO3UMATILLA-NEAR UMATILLA10-09-2018DISCHARGE (KAF)10869157
44FCFM8NF FLATHEAD-NEAR COLUMBIA FALLS10-09-2018DISCHARGE (KAF)11219657
45CHEI1FALL RIVER-NEAR CHESTER10-09-2018DISCHARGE (KAF)117111105
46SERO3JOHN DAY-AT SERVICE CK10-09-2018DISCHARGE (KAF)12116772
47MILI1SNAKE-AT MILNER10-09-2018DISCHARGE (KAF)13251426
48HHWM8SF FLATHEAD-HUNGRY HORSE DAM10-09-2018INFLOW (KAF)13724456
49PRTI1PRIEST-NEAR PRIEST RIVER10-09-2018DISCHARGE (KAF)13823459
50CHDW1CHELAN-LAKE CHELAN DAM10-09-2018INFLOW (KAF)13815688
51BONM8BLACKFOOT-NEAR BONNER10-09-2018DISCHARGE (KAF)139137101
52WGCM8MF FLATHEAD-NEAR WEST GLACIER10-09-2018DISCHARGE (KAF)15117288
53BITM8BITTERROOT-NEAR MISSOULA10-09-2018DISCHARGE (KAF)16623072
54DRMM8CLARK FORK-NR DRUMMOND10-09-2018DISCHARGE (KAF)167MM
55PESW1WENATCHEE-AT PESHASTIN10-09-2018DISCHARGE (KAF)18429063
56PARI1BOISE-NEAR PARMA10-09-2018DISCHARGE (KAF)18420988
57TRYO3GRANDE RONDE-TROY10-09-2018DISCHARGE (KAF)18527268
58UMTW1YAKIMA-AT UMTANUM10-09-2018DISCHARGE (KAF)19724182
59PITW1KLICKITAT-NEAR PITT10-09-2018DISCHARGE (KAF)21125782
60UNDW1WHITE SALMON-NEAR UNDERWOOD10-09-2018DISCHARGE (KAF)221221100
61HODO3HOOD-NEAR TUCKER BRIDGE10-09-2018DISCHARGE (KAF)224209108
62COEI1COEUR D ALENE-COEUR D ALENE LAKE10-09-2018INFLOW (KAF)23459539
63TONW1OKANOGAN-NEAR TONASKET10-09-2018DISCHARGE (KAF)23628084
64DWRI1NF CLEARWATER-DWORSHAK DAM10-09-2018INFLOW (KAF)26747656
65EMMI1PAYETTE-NEAR EMMETT10-09-2018DISCHARGE (KAF)28034481
66PARW1YAKIMA-NEAR PARKER10-09-2018DISCHARGE (KAF)31542374
67JKSW4SNAKE-NEAR JACKSON10-09-2018DISCHARGE (KAF)325315103
68SPOW1SPOKANE-AT SPOKANE10-09-2018DISCHARGE (KAF)339MM
69ANTI1HENRYS FORK-AT ST. ANTHONY10-09-2018DISCHARGE (KAF)349338103
70ABOM8CLARK FORK-ABOVE MISSOULA10-09-2018DISCHARGE (KAF)381347110
71ORFI1CLEARWATER-AT OROFINO10-09-2018DISCHARGE (KAF)38262761
72ALPW4SNAKE-NEAR ALPINE10-09-2018DISCHARGE (KAF)413400103
73REXI1HENRYS FORK-AT REXBURG10-09-2018DISCHARGE (KAF)433428101
74LLKW1SPOKANE-AT LONGLAKE10-09-2018INFLOW (KAF)525104450
75KIOW1YAKIMA-AT KIONA10-09-2018DISCHARGE (KAF)54165982
76BELM8CLARK FORK-BELOW MISSOULA10-09-2018DISCHARGE (KAF)55058195
77HEII1SNAKE-NEAR HEISE10-09-2018DISCHARGE (KAF)631620102
78PLDI1SF SNAKE-PALISADES DAM10-09-2018INFLOW (KAF)648646100
79SRGM8CLARK FORK-AT ST REGIS10-09-2018DISCHARGE (KAF)68575790
80SNAI1SNAKE-AT BLACKFOOT10-09-2018DISCHARGE (KAF)758714106
81LYDM8KOOTENAI-LIBBY DAM10-09-2018INFLOW (KAF)77493783
82BFTI1SNAKE-NEAR BLACKFOOT10-09-2018DISCHARGE (KAF)777771101
83SPDI1CLEARWATER-AT SPALDING10-09-2018DISCHARGE (KAF)819149855
84SHYI1SNAKE-NEAR SHELLEY10-09-2018DISCHARGE (KAF)863797108
85SIFI1SNAKE-AB EAGLE ROCK NR IDAHO FALLS10-09-2018DISCHARGE (KAF)868817106
86CFMM8FLATHEAD-AT COLUMBIA FALLS10-09-2018DISCHARGE (KAF)902119276
87WHBI1SALMON-AT WHITEBIRD10-09-2018DISCHARGE (KAF)1008108493
88KERM8FLATHEAD-KERR DAM10-09-2018INFLOW (KAF)1012149468
89MODO3DESCHUTES-AT MOODY NR BIGGS10-09-2018DISCHARGE (KAF)1288134296
90AFRI1SNAKE-AMERICAN FALLS RESERVOIR10-09-2018INFLOW (KAF)1436145299
91SWAI1SNAKE-BELOW SWAN FALLS10-09-2018DISCHARGE (KAF)1927251777
92LEOI1KOOTENAI-AT LEONIA10-09-2018DISCHARGE (KAF)24801614154
93NOXM8CLARK FORK-NOXON RAPIDS DAM10-09-2018INFLOW (KAF)2524344273
94WEII1SNAKE-AT WEISER10-09-2018DISCHARGE (KAF)2734355977
95CABI1CLARK FORK-CABINET GORGE DAM10-09-2018INFLOW (KAF)2766358777
96ALFW1PEND OREILLE-ALBENI FALLS DAM10-09-2018INFLOW (KAF)2899416970
97BRNI1SNAKE-BROWNLEE DAM10-09-2018INFLOW (KAF)2909366079
98ANAW1SNAKE-NEAR ANATONE10-09-2018DISCHARGE (KAF)3823552369
99LGDW1SNAKE-LOWER GRANITE DAM10-09-2018INFLOW (KAF)4643722764
100LGSW1SNAKE-LITTLE GOOSE DAM10-09-2018INFLOW (KAF)4643727764
101LMNW1SNAKE-LOWER MONUMENTAL DAM10-09-2018INFLOW (KAF)4675733464
102IHDW1SNAKE-ICE HARBOR DAM10-09-2018INFLOW (KAF)4675725764
103CIBW1COLUMBIA-AT INTL BOUNDARY10-09-2018DISCHARGE (KAF)19033MM
104GCDW1COLUMBIA-GRAND COULEE DAM10-09-2018INFLOW (KAF)1971017222114
105CHJW1COLUMBIA-CHIEF JOSEPH DAM10-09-2018INFLOW (KAF)197902081395
106WELW1COLUMBIA-WELLS DAM10-09-2018INFLOW (KAF)201222116895
107RRHW1COLUMBIA-ROCKY REACH DAM10-09-2018INFLOW (KAF)206812167095
108PRWW1COLUMBIA-PRIEST RAPIDS DAM10-09-2018INFLOW (KAF)2087919702106
109WANW1COLUMBIA-WANAPUM DAM10-09-2018INFLOW (KAF)2088019365108
110MCDW1COLUMBIA-MCNARY DAM10-09-2018INFLOW (KAF)261302883291
111JDAO3COLUMBIA-JOHN DAY DAM10-09-2018INFLOW (KAF)271862966692
112TDAO3COLUMBIA-THE DALLES DAM10-09-2018INFLOW (KAF)278713291485
113BONO3COLUMBIA-BONNEVILLE DAM10-09-2018INFLOW (KAF)285163486382
114BFEI1KOOTENAI-AT BONNERS FERRY10-09-2018STAGE (FT)MMM
115HOPI1PEND OREILLE-PEND OREILLE LAKE NR HOPE10-09-2018LAKE ELEVATION (FT)MMM
116SJMI1ST JOE-AT ST MARIES10-09-2018STAGE (FT)MMM